TimeCEST,TemperatureF,Dew PointF,Humidity,Sea Level PressureIn,VisibilityMPH,Wind Direction,Wind SpeedMPH,Gust SpeedMPH,PrecipitationIn,Events,Conditions,WindDirDegrees,DateUTC
12:15 AM,62.6,57.2,82,30.01,6.2,NE,8.1,-,N/A,,Partly Cloudy,40,2013-05-09 22:15:00
12:45 AM,62.6,57.2,82,30.01,6.2,NNE,4.6,-,N/A,,Partly Cloudy,20,2013-05-09 22:45:00
12:55 AM,62.6,57.2,82,30.01,6.2,NNE,4.6,-,N/A,,Partly Cloudy,20,2013-05-09 22:55:00
1:15 AM,62.6,57.2,82,29.98,6.2,WNW,5.8,-,N/A,,Partly Cloudy,290,2013-05-09 23:15:00
1:45 AM,62.6,57.2,82,29.98,6.2,NW,6.9,-,N/A,,Partly Cloudy,310,2013-05-09 23:45:00
1:55 AM,62.6,57.2,82,29.98,6.2,NW,6.9,-,N/A,,Partly Cloudy,310,2013-05-09 23:55:00
2:00 AM,62,57,79,30.00,7,NW,6.9,,,,Scattered Clouds,310,2013-05-10 00:00:00
2:15 AM,60.8,57.2,88,29.98,6.2,NW,8.1,-,N/A,,Partly Cloudy,310,2013-05-10 00:15:00
2:45 AM,60.8,57.2,88,29.98,6.2,NNW,6.9,-,N/A,,Scattered Clouds,340,2013-05-10 00:45:00
2:55 AM,60.8,57.2,88,29.98,6.2,NNW,6.9,-,N/A,,Scattered Clouds,340,2013-05-10 00:55:00
3:15 AM,60.8,57.2,88,29.98,6.2,NNW,8.1,-,N/A,,Scattered Clouds,340,2013-05-10 01:15:00
3:45 AM,60.8,57.2,88,29.98,6.2,NNW,8.1,-,N/A,,Scattered Clouds,330,2013-05-10 01:45:00
3:55 AM,60.8,57.2,88,29.98,6.2,NNW,8.1,-,N/A,,Scattered Clouds,330,2013-05-10 01:55:00
4:15 AM,60.8,57.2,88,29.98,6.2,NNW,8.1,-,N/A,,Scattered Clouds,330,2013-05-10 02:15:00
4:45 AM,60.8,57.2,88,29.95,6.2,NNW,6.9,-,N/A,,Scattered Clouds,330,2013-05-10 02:45:00
4:55 AM,60.8,57.2,88,29.95,6.2,NNW,6.9,-,N/A,,Scattered Clouds,330,2013-05-10 02:55:00
5:00 AM,60,57,87,29.97,7,NNW,6.9,,,,Partly Cloudy,330,2013-05-10 03:00:00
5:15 AM,60.8,57.2,88,29.95,6.2,NNW,8.1,-,N/A,,Scattered Clouds,330,2013-05-10 03:15:00
5:45 AM,60.8,55.4,82,29.95,6.2,NW,9.2,-,N/A,,Scattered Clouds,310,2013-05-10 03:45:00
5:55 AM,60.8,55.4,82,29.95,6.2,NW,9.2,-,N/A,,Scattered Clouds,310,2013-05-10 03:55:00
6:15 AM,60.8,55.4,82,29.95,6.2,NW,9.2,-,N/A,,Scattered Clouds,310,2013-05-10 04:15:00
6:45 AM,60.8,57.2,88,29.95,6.2,NW,8.1,-,N/A,,Scattered Clouds,310,2013-05-10 04:45:00
6:55 AM,60.8,57.2,88,29.95,6.2,NW,8.1,-,N/A,,Scattered Clouds,310,2013-05-10 04:55:00
7:15 AM,60.8,57.2,88,29.98,6.2,WNW,10.4,-,N/A,,Scattered Clouds,300,2013-05-10 05:15:00
7:45 AM,60.8,57.2,88,29.98,-9999.0,NW,9.2,-,N/A,,Clear,310,2013-05-10 05:45:00
7:55 AM,60.8,57.2,88,29.98,-9999.0,NW,9.2,-,N/A,,Clear,310,2013-05-10 05:55:00
8:00 AM,62,58,81,29.99,6,NW,9.2,,,,Partly Cloudy,310,2013-05-10 06:00:00
8:15 AM,62.6,59.0,88,29.98,-9999.0,NW,8.1,-,N/A,,Clear,310,2013-05-10 06:15:00
8:45 AM,66.2,59.0,78,29.98,-9999.0,WNW,10.4,-,N/A,,Clear,300,2013-05-10 06:45:00
8:55 AM,66.2,59.0,78,29.98,-9999.0,WNW,10.4,-,N/A,,Clear,300,2013-05-10 06:55:00
9:15 AM,68.0,57.2,68,29.98,-9999.0,NNW,11.5,-,N/A,,Clear,330,2013-05-10 07:15:00
9:45 AM,71.6,55.4,57,29.98,-9999.0,North,11.5,-,N/A,,Clear,350,2013-05-10 07:45:00
9:55 AM,71.6,55.4,57,29.98,-9999.0,North,11.5,-,N/A,,Clear,350,2013-05-10 07:55:00
10:15 AM,73.4,51.8,47,29.98,6.2,NNW,10.4,-,N/A,,Partly Cloudy,340,2013-05-10 08:15:00
10:45 AM,77.0,50.0,39,29.95,6.2,NW,8.1,-,N/A,,Partly Cloudy,310,2013-05-10 08:45:00
10:55 AM,77.0,50.0,39,29.95,6.2,NW,8.1,-,N/A,,Partly Cloudy,310,2013-05-10 08:55:00
11:00 AM,76,50,30,29.97,12,NW,8.1,,,,Scattered Clouds,310,2013-05-10 09:00:00
11:15 AM,78.8,50.0,36,29.98,6.2,West,9.2,-,N/A,,Partly Cloudy,270,2013-05-10 09:15:00
11:45 AM,78.8,50.0,36,29.95,-9999.0,WSW,4.6,-,N/A,,Clear,240,2013-05-10 09:45:00
11:55 AM,78.8,50.0,36,29.95,-9999.0,WSW,4.6,-,N/A,,Clear,240,2013-05-10 09:55:00
12:15 PM,78.8,53.6,42,29.95,6.2,South,12.7,-,N/A,,Partly Cloudy,180,2013-05-10 10:15:00
12:45 PM,77.0,53.6,44,29.95,6.2,South,13.8,-,N/A,,Partly Cloudy,180,2013-05-10 10:45:00
12:55 PM,77.0,53.6,44,29.95,6.2,South,13.8,-,N/A,,Partly Cloudy,180,2013-05-10 10:55:00
1:15 PM,77.0,53.6,44,29.95,6.2,South,12.7,-,N/A,,Partly Cloudy,170,2013-05-10 11:15:00
1:45 PM,78.8,51.8,39,29.95,6.2,SSE,11.5,-,N/A,,Partly Cloudy,160,2013-05-10 11:45:00
1:55 PM,78.8,51.8,39,29.95,6.2,SSE,11.5,-,N/A,,Partly Cloudy,160,2013-05-10 11:55:00
2:00 PM,78,52,30,29.96,12,SSE,11.5,,,,Scattered Clouds,160,2013-05-10 12:00:00
2:15 PM,77.0,51.8,41,29.95,6.2,SSE,12.7,-,N/A,,Partly Cloudy,160,2013-05-10 12:15:00
2:45 PM,78.8,53.6,42,29.95,6.2,SSE,11.5,-,N/A,,Partly Cloudy,160,2013-05-10 12:45:00
2:55 PM,78.8,53.6,42,29.95,6.2,SSE,11.5,-,N/A,,Partly Cloudy,160,2013-05-10 12:55:00
3:15 PM,77.0,55.4,47,29.95,6.2,SSE,9.2,-,N/A,,Scattered Clouds,160,2013-05-10 13:15:00
3:45 PM,78.8,55.4,44,29.95,6.2,SE,9.2,-,N/A,,Scattered Clouds,140,2013-05-10 13:45:00
3:55 PM,78.8,55.4,44,29.95,6.2,SE,9.2,-,N/A,,Scattered Clouds,140,2013-05-10 13:55:00
4:15 PM,80.6,53.6,39,29.95,6.2,WNW,6.9,-,N/A,,Partly Cloudy,300,2013-05-10 14:15:00
4:45 PM,82.4,51.8,35,29.92,6.2,WNW,16.1,-,N/A,,Partly Cloudy,300,2013-05-10 14:45:00
4:55 PM,82.4,51.8,35,29.92,6.2,WNW,16.1,-,N/A,,Partly Cloudy,300,2013-05-10 14:55:00
5:00 PM,83,53,25,29.93,12,WNW,16.1,,,,Scattered Clouds,300,2013-05-10 15:00:00
5:15 PM,82.4,51.8,35,29.92,6.2,NW,13.8,-,N/A,,Partly Cloudy,310,2013-05-10 15:15:00
5:45 PM,82.4,51.8,35,29.92,6.2,West,16.1,-,N/A,,Partly Cloudy,280,2013-05-10 15:45:00
5:55 PM,82.4,51.8,35,29.92,6.2,West,16.1,-,N/A,,Partly Cloudy,280,2013-05-10 15:55:00
6:15 PM,82.4,51.8,35,29.92,6.2,WNW,15.0,-,N/A,,Partly Cloudy,290,2013-05-10 16:15:00
6:45 PM,80.6,53.6,39,29.92,6.2,NNW,15.0,-,N/A,,Partly Cloudy,330,2013-05-10 16:45:00
6:55 PM,80.6,53.6,39,29.92,6.2,NNW,15.0,-,N/A,,Partly Cloudy,330,2013-05-10 16:55:00
7:15 PM,77.0,53.6,44,29.92,6.2,NNW,17.3,-,N/A,,Partly Cloudy,330,2013-05-10 17:15:00
7:45 PM,75.2,53.6,47,29.92,6.2,NNW,18.4,-,N/A,,Partly Cloudy,330,2013-05-10 17:45:00
7:55 PM,75.2,53.6,47,29.92,6.2,NNW,18.4,-,N/A,,Partly Cloudy,330,2013-05-10 17:55:00
8:00 PM,76,54,36,29.94,12,NNW,18.4,,,,Partly Cloudy,330,2013-05-10 18:00:00
8:15 PM,71.6,55.4,57,29.95,6.2,NNW,20.7,-,N/A,,Partly Cloudy,340,2013-05-10 18:15:00
8:45 PM,68.0,57.2,68,29.95,6.2,NNW,20.7,-,N/A,,Partly Cloudy,340,2013-05-10 18:45:00
8:55 PM,68.0,57.2,68,29.95,6.2,NNW,20.7,-,N/A,,Partly Cloudy,340,2013-05-10 18:55:00
9:15 PM,66.2,59.0,78,29.95,6.2,NNW,20.7,-,N/A,,Partly Cloudy,340,2013-05-10 19:15:00
9:45 PM,64.4,57.2,77,29.98,6.2,NNW,18.4,-,N/A,,Partly Cloudy,340,2013-05-10 19:45:00
9:55 PM,64.4,57.2,77,29.98,6.2,NNW,18.4,-,N/A,,Partly Cloudy,340,2013-05-10 19:55:00
10:15 PM,64.4,57.2,77,29.98,6.2,North,19.6,-,N/A,,Partly Cloudy,350,2013-05-10 20:15:00
10:45 PM,64.4,55.4,73,29.98,6.2,NNW,18.4,-,N/A,,Partly Cloudy,330,2013-05-10 20:45:00
10:55 PM,64.4,55.4,73,29.98,6.2,NNW,17.3,-,N/A,,Partly Cloudy,330,2013-05-10 20:55:00
11:00 PM,64,56,69,30.00,9,NNW,17.3,,,,Scattered Clouds,330,2013-05-10 21:00:00
11:15 PM,64.4,55.4,73,29.98,6.2,NNW,18.4,-,N/A,,Partly Cloudy,340,2013-05-10 21:15:00
11:45 PM,64.4,55.4,73,30.01,6.2,NNW,16.1,-,N/A,,Partly Cloudy,340,2013-05-10 21:45:00
11:55 PM,64.4,55.4,73,30.01,6.2,NNW,16.1,-,N/A,,Partly Cloudy,340,2013-05-10 21:55:00